Weather in Pretoria

South Africa     25°44′23″S   28°13′13″E
temp.,
°C
wind,
m/s
gust,
m/s
humid.,
%
clouds,
%
prec.,
mm/h
press.,
hPa
HPBL,
m
9 march, tue
tue923:00+24sw26270 0.0 1011288
02:00+23sw01340 0.0 101124
05:00+21nne11350 0.0 101225
08:00+23nne45260 0.0 1014479
11:00+29nnw33220 0.0 10122154
14:00+31nw44189 0.0 10103212
17:00+30wnw452053 0.0 10093117
20:00+28wsw462776 0.0 1011998
10 march, wed
wed1023:00+25ssw13352 0.0 1012173
02:00+24nw013643 0.0 1011120
05:00+22nne35433 0.0 1012301
08:00+24nne234017 0.0 1014385
11:00+29nw45270 0.0 10121841
14:00+32w44170 0.0 10093155
17:00+32wsw34170 0.0 10083152
20:00+28wsw48214 0.0 1010527
11 march, thu
thu1123:00+26s36221 0.0 1011214
02:00+24e12247 0.0 101173
05:00+23ese352485 0.0 1012198
08:00+25e232060 0.0 1013214
11:00+32n111810 0.0 10111450
14:00+34nw22155 0.0 10083544
17:00+32wsw221779 0.0 10082984
20:00+29ssw342171 0.0 1011644
12 march, fri
fri1223:00+25ne610341 0.0 1013504
02:00+23e48441 0.0 1014400
05:00+20e586323 0.2 1015606
08:00+21e576513 0.5 1017744
11:00+27nne45417 0.0 10151182
14:00+30n443123 0.0 10132331
17:00+25nw784764 0.1 1014637
20:00+21e566378 2.9 1018477
13 march, sat
sat1323:00+19se597383 1.6 1019312
02:00+20sse466589 3.3 1018301
05:00+20nne356372 0.8 1018283
08:00+20nne236544 0.8 1018689
11:00+25nnw22455 0.0 10161388
14:00+28n233535 0.0 10142165
17:00+27ene233563 0.2 10121935
20:00+25w244050 0.2 1014403